Terminal Aerodrome Forecast
Issued by NWS Dodge City, KS

Home | Current Version | Previous Version | Text Only | Print | Product List | Glossary On
Versions: 1 2 3 4 5 6 7 8 9 10 11 12 13 14 15 16 17 18 19 20 21 22 23 24 25 26 27 28 29 30 31 32 33 34 35 36 37 38 39 40
000
FTUS43 KDDC 310520
TAFDDC
TAF
KDDC 310520Z 3106/0106 02004KT P6SM BKN120
     FM310800 02004KT 5SM BR BKN050
     FM311000 01004KT 2SM BR BKN010
      TEMPO 3110/3114 3/4SM BR OVC005
     FM311600 02005KT P6SM BKN025
     FM311700 03006KT P6SM BKN045 PROB30 3118/3122 4SM -TSRA
      OVC025CB=

USA.gov is the U.S. government's official web portal to all federal, state and local government web resources and services.